EW6237 Weather Reports


time (UTC)temp
F
wind
direction
speed
knots
gust
knots
rain 1hr
in
rain 24hr
in
rain mn
in
humidity
%
barometer
mb
20260507180031 59 201 0.0 2.6 0.00 0.00 0.00 42 1014.4
20260507174533 59 202 0.0 7.0 0.00 0.00 0.00 39 1014.5
20260507173031 59 202 0.9 2.6 0.00 0.00 0.00 41 1014.7
20260507171529 59 202 0.0 6.1 0.00 0.00 0.00 40 1014.9
20260507170026 59 201 0.0 7.8 0.00 0.00 0.00 40 1015.2
20260507164522 58 201 0.0 4.3 0.00 0.00 0.00 45 1015.2
20260507163021 57 201 0.9 4.3 0.00 0.00 0.00 39 1015.4
20260507161520 58 202 0.9 3.5 0.00 0.00 0.00 39 1015.5
20260507160027 57 202 0.9 2.6 0.00 0.00 0.00 43 1015.6
20260507154518 57 202 0.9 2.6 0.00 0.00 0.00 47 1015.4
20260507153014 57 201 0.0 4.3 0.00 0.00 0.00 47 1015.4
20260507151510 56 201 0.0 3.5 0.00 0.00 0.00 49 1015.4
20260507150009 55 201 0.0 3.5 0.00 0.00 0.00 51 1015.4
20260507144509 55 202 1.7 6.1 0.00 0.00 0.00 50 1015.5
20260507143002 54 201 0.9 6.1 0.00 0.00 0.00 55 1015.4
20260507141623 54 201 0.0 3.5 0.00 0.00 0.00 54 1015.6
20260507140056 53 202 0.0 6.1 0.00 0.00 0.00 53 1015.6
20260507134555 52 201 1.7 7.0 0.00 0.00 0.00 52 1015.5
20260507133054 52 202 0.9 5.2 0.00 0.00 0.00 58 1015.4
20260507131602 51 202 0.9 4.3 0.00 0.00 0.00 63 1015.6
20260507130046 50 201 0.0 0.9 0.00 0.00 0.00 71 1015.4
20260507124541 49 201 0.0 3.5 0.00 0.00 0.00 72 1015.4
20260507123042 48 201 0.0 1.7 0.00 0.00 0.00 78 1015.7
20260507121542 47 201 0.0 2.6 0.00 0.00 0.00 86 1015.8
20260507120034 48 201 0.0 1.7 0.00 0.00 0.00 89 1015.8
20260507114531 46 201 0.0 0.0 0.00 0.00 0.00 94 1015.7
20260507113025 44 201 0.0 0.0 0.00 0.00 0.00 95 1015.7
20260507111523 40 201 0.0 0.0 0.00 0.00 0.00 97 1015.4
20260507110022 38 201 0.0 0.0 0.00 0.00 0.00 96 1015.2
20260507104518 37 201 0.0 0.0 0.00 0.00 0.00 96 1014.9
20260507103016 38 201 0.0 0.0 0.00 0.00 0.00 96 1014.8
20260507101516 38 201 0.0 0.0 0.00 0.00 0.00 96 1014.8
20260507100013 38 201 0.0 0.0 0.00 0.00 0.00 96 1014.8
20260507094512 38 201 0.0 0.0 0.00 0.00 0.00 96 1014.9
20260507093009 39 201 0.0 0.0 0.00 0.00 0.00 95 1014.9
20260507091508 39 201 0.0 0.0 0.00 0.00 0.00 95 1014.7
20260507090004 40 201 0.0 0.0 0.00 0.00 0.00 95 1014.5
20260507084602 40 201 0.0 0.0 0.00 0.03 0.00 95 1014.4
20260507083059 40 201 0.0 0.0 0.00 0.03 0.00 95 1014.3
20260507081559 41 201 0.0 0.0 0.00 0.03 0.00 95 1014.3
20260507080107 41 201 0.0 0.0 0.00 0.03 0.00 95 1014.3
20260507074556 42 201 0.0 0.0 0.00 0.11 0.00 94 1014.2
20260507073052 42 201 0.0 0.0 0.00 0.11 0.00 94 1014.2
20260507071551 43 201 0.0 0.0 0.00 0.11 0.00 94 1014.1
20260507070058 43 202 0.0 0.0 0.00 0.11 0.00 95 1014.1
20260507064619 42 201 0.0 0.0 0.00 0.23 0.00 94 1014.2
20260507063052 42 201 0.0 0.0 0.00 0.23 0.00 94 1014.3
20260507061546 42 202 0.0 0.0 0.00 0.23 0.00 93 1014.4
20260507060109 43 201 0.0 0.0 0.00 0.23 0.00 93 1014.3
20260507054547 43 202 0.0 0.0 0.00 0.31 0.00 92 1014.4
20260507053041 43 201 0.0 0.0 0.00 0.31 0.00 92 1014.4
20260507051551 44 201 0.0 0.0 0.00 0.31 0.00 92 1014.4
20260507050045 44 201 0.0 0.0 0.00 0.31 0.00 92 1014.4
20260507044537 44 201 0.0 0.0 0.00 0.51 0.00 91 1014.4
20260507043035 44 201 0.0 0.0 0.00 0.51 0.00 90 1014.4
20260507041532 44 202 0.0 0.0 0.00 0.51 0.00 89 1014.7
20260507040030 45 202 0.0 0.0 0.00 0.51 0.00 89 1014.6
20260507034530 45 201 0.0 0.0 0.00 0.52 0.51 87 1014.4
20260507033028 45 201 0.0 0.0 0.00 0.52 0.51 86 1014.4
20260507031527 46 202 0.0 0.0 0.00 0.52 0.51 85 1014.3
20260507030029 47 202 0.0 0.0 0.00 0.52 0.51 84 1014.4
20260507024527 48 202 0.0 0.0 0.00 0.52 0.51 83 1014.3
20260507023023 49 202 0.0 0.0 0.00 0.52 0.51 83 1014.2
20260507021522 50 202 0.0 0.0 0.00 0.52 0.51 81 1014.0
20260507020022 50 201 0.0 0.0 0.00 0.52 0.51 79 1013.9
20260507014519 51 202 0.0 0.0 0.00 0.53 0.51 80 1013.7
20260507013017 51 202 0.0 0.0 0.00 0.53 0.51 77 1013.7
20260507011517 52 201 0.0 0.0 0.00 0.53 0.51 76 1013.6
20260507010020 53 201 0.0 0.0 0.00 0.53 0.51 75 1013.5
20260507004518 54 201 0.0 0.0 0.00 0.53 0.51 72 1013.2
20260507003013 55 201 0.0 0.0 0.00 0.53 0.51 71 1013.3
20260507001515 55 201 0.0 0.0 0.00 0.53 0.51 71 1013.1
20260507000010 55 201 0.0 0.0 0.00 0.53 0.51 68 1012.9
20260506234510 56 202 0.0 0.0 0.00 0.59 0.51 69 1013.0
20260506233012 56 201 0.0 0.9 0.00 0.59 0.51 64 1012.9
20260506231506 57 201 0.0 2.6 0.00 0.59 0.51 62 1012.5
20260506230017 57 201 0.0 3.5 0.00 0.59 0.51 60 1012.3
20260506224505 58 201 0.0 3.5 0.00 0.59 0.51 59 1012.1
20260506223004 59 201 0.0 5.2 0.00 0.59 0.51 60 1012.1
20260506221503 59 201 0.0 1.7 0.00 0.59 0.51 59 1012.2
20260506220005 60 201 0.0 1.7 0.00 0.59 0.51 59 1012.1
20260506214502 60 201 0.0 2.6 0.00 0.62 0.51 57 1012.3
20260506213002 61 201 0.0 1.7 0.00 0.62 0.51 53 1012.6
20260506211501 61 201 0.0 0.9 0.00 0.62 0.51 56 1012.2
20260506210106 61 201 0.0 3.5 0.00 0.62 0.51 54 1012.5
20260506204607 61 201 0.0 5.2 0.00 0.79 0.51 52 1012.2
20260506203058 60 201 0.0 2.6 0.00 0.79 0.51 57 1012.2
20260506201556 61 202 0.0 3.5 0.00 0.79 0.51 58 1012.3
20260506200056 61 202 0.0 2.6 0.00 0.79 0.51 55 1012.3
20260506194554 61 201 0.9 5.2 0.00 0.87 0.51 54 1012.2
20260506193052 62 202 0.0 2.6 0.00 0.87 0.51 55 1012.5
20260506191552 61 202 0.0 2.6 0.00 0.87 0.51 58 1012.5
20260506190050 61 201 0.0 4.3 0.00 0.87 0.51 59 1012.2
20260506184559 61 202 0.0 4.3 0.00 0.87 0.51 58 1012.2
20260506183046 60 201 1.7 6.1 0.00 0.87 0.51 60 1012.0
20260506181544 60 201 0.9 7.0 0.00 0.87 0.51 60 1011.8